N3EYQ Weather Reports


time (UTC)temp
C
wind
direction
speed
KPH
gust
KPH
rain 1hr
cm
rain 24hr
cm
rain mn
cm
humidity
%
barometer
mb
20260504081023 2 0 0.0 0.0 0.00 0.00 0.00 77 1012.7
20260504050021 3 0 0.0 0.0 0.00 0.00 0.00 71 1012.0
20260504045020 3 0 0.0 0.0 0.00 0.00 0.00 71 1012.0
20260504044020 4 0 0.0 0.0 0.00 0.00 0.00 70 1012.0
20260504043020 4 0 0.0 0.0 0.00 0.00 0.00 70 1012.0
20260504042020 4 0 0.0 0.0 0.00 0.00 0.00 69 1012.0
20260504041020 4 0 0.0 0.0 0.00 0.00 0.00 70 1012.0
20260504040020 4 0 0.0 0.0 0.00 0.00 0.00 68 1012.0
20260504035020 4 0 0.0 0.0 0.00 0.00 0.00 68 1012.0
20260504034020 4 0 0.0 0.0 0.00 0.00 0.00 67 1012.0
20260504033019 4 0 0.0 0.0 0.00 0.00 0.00 67 1012.0
20260504032020 5 0 0.0 0.0 0.00 0.00 0.00 66 1012.0
20260504031020 5 0 0.0 0.0 0.00 0.00 0.00 66 1012.0
20260504030019 5 0 0.0 0.0 0.00 0.00 0.00 64 1012.0
20260504025019 5 0 0.0 0.0 0.00 0.00 0.00 64 1011.6
20260504024018 5 0 0.0 0.0 0.00 0.00 0.00 63 1011.6
20260504023018 6 0 0.0 0.0 0.00 0.00 0.00 61 1011.6
20260504022019 6 0 0.0 0.0 0.00 0.00 0.00 60 1011.6
20260504021018 6 0 0.0 0.0 0.00 0.00 0.00 59 1011.6
20260504020018 6 0 0.0 0.0 0.00 0.00 0.00 58 1011.6
20260504015018 7 0 0.0 0.0 0.00 0.00 0.00 57 1011.6
20260504014018 7 0 0.0 0.0 0.00 0.00 0.00 57 1011.6
20260504013018 7 0 0.0 0.0 0.00 0.00 0.00 56 1011.3
20260504012017 7 0 0.0 0.0 0.00 0.00 0.00 54 1011.6
20260504011018 8 0 0.0 0.0 0.00 0.00 0.00 54 1011.6
20260504010017 8 0 0.0 0.0 0.00 0.00 0.00 51 1011.3
20260504005017 9 0 0.0 0.0 0.00 0.00 0.00 49 1011.3
20260504004017 10 0 0.0 0.0 0.00 0.00 0.00 47 1011.3
20260504003018 10 0 0.0 0.0 0.00 0.00 0.00 46 1011.0
20260504002017 11 0 0.0 0.0 0.00 0.00 0.00 44 1011.0
20260504001017 11 0 0.0 0.0 0.00 0.00 0.00 43 1010.6
20260504000017 12 0 0.0 0.0 0.00 0.00 0.00 41 1010.6
20260503235016 12 0 0.0 0.0 0.00 0.00 0.00 39 1010.6
20260503234016 13 0 0.0 0.0 0.00 0.00 0.00 37 1010.3
20260503233016 13 0 0.0 0.0 0.00 0.00 0.00 37 1010.3
20260503232016 13 0 0.0 0.0 0.00 0.00 0.00 35 1010.3
20260503231016 13 0 0.0 0.0 0.00 0.00 0.00 34 1010.3
20260503230017 13 0 0.0 0.0 0.00 0.00 0.00 34 1010.3
20260503225016 14 0 0.0 0.0 0.00 0.00 0.00 33 1010.3
20260503224016 14 0 0.0 0.0 0.00 0.00 0.00 32 1010.0
20260503223015 14 0 0.0 0.0 0.00 0.00 0.00 31 1010.0
20260503222015 14 0 0.0 0.0 0.00 0.00 0.00 31 1010.0
20260503221015 14 0 0.0 0.0 0.00 0.00 0.00 30 1010.0
20260503220015 15 0 0.0 0.0 0.00 0.00 0.00 29 1010.0
20260503215016 15 0 0.0 0.0 0.00 0.00 0.00 28 1009.6
20260503214016 15 0 0.0 0.0 0.00 0.00 0.00 27 1010.0
20260503213014 15 0 0.0 0.0 0.00 0.00 0.00 27 1009.6
20260503212014 15 0 0.0 0.0 0.00 0.00 0.00 28 1009.6
20260503211016 15 0 0.0 0.0 0.00 0.00 0.00 28 1009.6
20260503210015 15 0 0.0 0.0 0.00 0.00 0.00 29 1009.6
20260503205014 15 0 0.0 0.0 0.00 0.00 0.00 29 1009.6
20260503204014 15 0 0.0 0.0 0.00 0.00 0.00 30 1009.6
20260503203014 15 0 0.0 0.0 0.00 0.00 0.00 29 1010.0
20260503202015 15 0 0.0 0.0 0.00 0.00 0.00 31 1010.0
20260503201014 15 0 0.0 0.0 0.00 0.00 0.00 31 1010.0
20260503200013 15 0 0.0 0.0 0.00 0.00 0.00 31 1010.0
20260503195013 15 0 0.0 0.0 0.00 0.00 0.00 32 1010.0
20260503194013 14 0 0.0 0.0 0.00 0.00 0.00 31 1010.0
20260503193013 14 0 0.0 0.0 0.00 0.00 0.00 32 1010.3
20260503192013 13 0 0.0 0.0 0.00 0.00 0.00 33 1010.6
20260503191013 13 0 0.0 0.0 0.00 0.00 0.00 34 1010.6
20260503190013 13 0 0.0 0.0 0.00 0.00 0.00 34 1011.0
20260503185013 13 0 0.0 0.0 0.00 0.00 0.00 34 1011.0
20260503184012 13 0 0.0 0.0 0.00 0.00 0.00 37 1011.0
20260503183012 13 0 0.0 0.0 0.00 0.00 0.00 35 1011.0
20260503182012 13 0 0.0 0.0 0.00 0.00 0.00 37 1011.3
20260503181012 13 0 0.0 0.0 0.00 0.00 0.00 36 1011.3
20260503180012 12 0 0.0 0.0 0.00 0.00 0.00 37 1011.3
20260503175011 12 0 0.0 0.0 0.00 0.00 0.00 37 1011.3
20260503174012 12 0 0.0 0.0 0.00 0.00 0.00 39 1011.6
20260503173011 12 0 0.0 0.0 0.00 0.00 0.00 37 1011.6
20260503172011 12 0 0.0 0.0 0.00 0.00 0.00 39 1011.6
20260503171011 12 0 0.0 0.0 0.00 0.00 0.00 41 1011.6
20260503151009 11 0 0.0 0.0 0.00 0.00 0.00 42 1012.0
20260503131008 9 0 0.0 0.0 0.00 0.00 0.00 52 1012.0